Stations météo

réclame
Mon MeteoGroup
Chassiron, France (7314): Température de l'air & dewpoint: 17.01.2019 08:00:00 - 23.01.2019 08:00:00 (CET)Chassiron, France (7314): Vitesse du vent & gusts: 17.01.2019 08:00:00 - 23.01.2019 08:00:00 (CET)Chassiron, France (7314): Direction du vent: 17.01.2019 08:00:00 - 23.01.2019 08:00:00 (CET)Chassiron, France (7314): reduced air pressure: 17.01.2019 08:00:00 - 23.01.2019 08:00:00 (CET)Chassiron, France (7314): visibility: 17.01.2019 08:00:00 - 23.01.2019 08:00:00 (CET)Chassiron, France (7314): Quantités de précipitations: 17.01.2019 08:00:00 - 23.01.2019 08:00:00 (CET)
Date & Time tt [°C] td [°C] ff [km/h] ff [knt] fx [km/h] fx [knt] dd ppp [hPa] vv [km] rr [mm]
23.01.2019 08:00:00 8,1 3,9 46 25 66 36 NNW 1000,0 - 0,0
23.01.2019 07:00:00 8,9 5,5 45 24 59 32 NNW 998,8 14 0,2
23.01.2019 06:00:00 9,1 6,7 28 15 39 21 NW 998,8 - 0,0
23.01.2019 05:00:00 8,4 5,9 26 14 44 24 NW 999,1 - 0,0
23.01.2019 04:00:00 9,6 5,9 28 15 43 23 WNW 999,7 14 0,0
23.01.2019 03:00:00 9,5 6,4 28 15 44 24 W 1000,6 - 0,0
23.01.2019 02:00:00 9,4 5,9 29 15 45 24 WNW 1001,6 - 0,0
23.01.2019 01:00:00 9,1 6,0 21 12 37 20 W 1002,2 15 0,0
23.01.2019 00:00:00 9,1 5,3 31 17 46 25 WNW 1003,2 - 0,0
22.01.2019 23:00:00 8,8 5,9 23 12 43 23 WNW 1003,9 - 0,0
22.01.2019 22:00:00 8,8 5,5 29 16 41 22 WNW 1004,5 - 0,0
22.01.2019 21:00:00 8,2 5,7 22 12 63 34 W 1005,1 - 0,6
22.01.2019 20:00:00 9,1 5,5 29 15 42 23 W 1005,8 - 0,0
22.01.2019 19:00:00 9,1 5,5 32 17 49 26 W 1006,3 12 0,0
22.01.2019 18:00:00 9,0 5,0 32 18 54 29 W 1007,0 - 0,2
22.01.2019 17:00:00 8,4 4,0 22 12 55 30 W 1007,7 - 0,2
22.01.2019 16:00:00 9,2 4,4 23 12 38 21 WNW 1008,3 13 0,0
22.01.2019 15:00:00 8,7 3,7 27 15 42 23 WNW 1009,0 - 0,0
22.01.2019 14:00:00 8,8 4,2 27 15 46 25 NW 1009,6 - 0,0
22.01.2019 13:00:00 8,8 3,8 30 16 46 25 NW 1010,1 13 0,0
22.01.2019 12:00:00 8,7 4,1 33 18 47 26 NNW 1010,5 - 0,0
22.01.2019 11:00:00 8,5 4,1 35 19 51 28 NW 1010,2 - 0,0
22.01.2019 10:00:00 8,6 3,8 39 21 51 28 NNW 1010,1 - 0,0
22.01.2019 09:00:00 8,8 6,6 27 15 49 27 WNW 1010,0 - 1,9
22.01.2019 08:00:00 8,8 7,1 32 17 68 37 WSW 1010,8 - 4,0
22.01.2019 07:00:00 8,9 7,0 37 20 54 29 SSW 1011,7 12 0,2
22.01.2019 06:00:00 8,9 6,9 39 21 53 28 SSW 1012,9 - 0,2
22.01.2019 05:00:00 8,6 6,0 34 19 49 26 SSW 1014,5 - 0,0
22.01.2019 04:00:00 8,9 4,7 29 16 40 22 SSW 1016,3 - 0,0
22.01.2019 03:00:00 8,3 3,1 24 13 32 17 SW 1017,8 - 0,0
22.01.2019 02:00:00 7,9 2,4 22 12 34 18 WSW 1019,1 - 0,0
22.01.2019 01:00:00 4,5 1,9 10 6 19 10 SSE 1020,4 12 0,0
22.01.2019 00:00:00 3,0 -0,1 8 4 13 7 SSE 1021,3 - 0,0
21.01.2019 23:00:00 5,6 1,3 5 3 18 10 W 1021,7 - 0,0
21.01.2019 22:00:00 5,5 0,8 8 4 21 11 WNW 1022,1 12 0,0
21.01.2019 21:00:00 5,7 0,6 16 9 27 14 WNW 1023,2 - 0,0
21.01.2019 20:00:00 5,5 0,3 13 7 21 11 WNW 1023,8 - 0,0
21.01.2019 19:00:00 5,2 -0,2 10 6 18 10 WNW 1023,6 - 0,0
21.01.2019 18:00:00 4,9 -1,3 7 4 21 11 WNW 1023,6 - 0,0
21.01.2019 17:00:00 5,4 -0,4 12 6 23 13 NW 1023,8 - 0,0
21.01.2019 16:00:00 5,8 0,1 6 3 14 8 W 1023,8 - 0,0
21.01.2019 15:00:00 5,4 0,6 8 5 16 9 N 1024,2 - 0,0
21.01.2019 14:00:00 5,3 0,8 9 5 18 10 N 1024,6 - 0,0
21.01.2019 13:00:00 4,8 1,1 13 7 21 11 N 1025,2 - 0,0
21.01.2019 12:00:00 4,2 1,1 15 8 21 11 N 1025,5 - 0,0
21.01.2019 11:00:00 3,6 1,0 16 9 27 14 NNE 1025,1 - 0,0
21.01.2019 10:00:00 3,0 0,6 23 12 32 17 NNE 1024,8 - 0,0
21.01.2019 09:00:00 3,8 1,3 21 12 28 15 N 1024,4 - 0,0
21.01.2019 08:00:00 4,3 0,4 19 10 32 18 NNE 1023,8 - 0,0
21.01.2019 07:00:00 4,8 -0,4 22 12 35 19 NNE 1023,3 12 0,0
21.01.2019 06:00:00 5,0 -0,4 26 14 40 21 NNE 1023,0 - 0,0
21.01.2019 05:00:00 5,3 0,8 25 14 43 23 NNE 1022,7 - 0,0
21.01.2019 04:00:00 5,4 1,3 26 14 39 21 NNE 1022,7 - 0,0
21.01.2019 03:00:00 5,8 1,7 32 17 42 23 NNE 1022,4 - 0,0
21.01.2019 02:00:00 5,9 2,4 30 16 42 23 NNE 1022,0 - 0,0
21.01.2019 01:00:00 5,8 2,6 34 18 46 25 NNE 1021,5 14 0,0
21.01.2019 00:00:00 5,8 2,3 28 15 41 22 NNE 1021,2 - 0,0
20.01.2019 23:00:00 6,1 2,9 29 16 44 24 NNE 1020,5 - 0,0
20.01.2019 22:00:00 6,5 3,1 32 17 44 24 NNE 1019,9 - 0,0
20.01.2019 21:00:00 7,1 3,7 35 19 46 25 N 1018,9 - 0,0
20.01.2019 20:00:00 8,2 4,6 29 16 38 21 N 1018,5 - 0,0
20.01.2019 19:00:00 8,6 5,3 22 12 37 20 N 1017,9 - 0,0
20.01.2019 18:00:00 8,7 5,6 23 12 32 18 N 1017,0 - 0,0
20.01.2019 17:00:00 8,9 6,0 24 13 35 19 N 1016,2 - 0,0
20.01.2019 16:00:00 9,1 6,0 21 11 29 16 NNW 1015,6 14 0,0
20.01.2019 15:00:00 8,8 6,6 19 10 32 17 NNW 1015,3 - 0,0
20.01.2019 14:00:00 8,9 6,2 14 8 22 12 NNW 1015,1 - 0,0
20.01.2019 13:00:00 8,6 6,0 17 9 24 13 N 1015,1 - 0,0
20.01.2019 12:00:00 8,5 6,5 13 7 24 13 N 1014,8 - 0,0
20.01.2019 11:00:00 8,4 6,7 17 9 23 12 N 1014,1 - 0,0
20.01.2019 10:00:00 8,6 7,1 13 7 18 10 N 1013,1 - 0,0
20.01.2019 09:00:00 7,7 6,3 5 3 8 5 WSW 1012,3 - 0,2
20.01.2019 08:00:00 7,1 5,6 5 3 11 6 S 1011,7 - 0,0
20.01.2019 07:00:00 7,6 5,9 5 3 8 5 ENE 1011,3 - 0,4
20.01.2019 06:00:00 7,2 5,0 4 2 6 4 E 1010,8 - 0,0
20.01.2019 05:00:00 8,3 6,3 3 2 27 15 ENE 1010,8 - 0,8
20.01.2019 04:00:00 8,9 6,5 12 6 18 10 W 1010,5 12 0,4
20.01.2019 03:00:00 9,1 6,4 15 8 32 18 WSW 1010,2 - 0,0
20.01.2019 02:00:00 9,0 7,0 22 12 29 15 WSW 1009,8 - 0,0
20.01.2019 01:00:00 9,4 7,3 9 5 14 8 WSW 1009,9 - 0,0
20.01.2019 00:00:00 9,3 7,7 6 3 14 7 WSW 1009,6 - 0,0
19.01.2019 23:00:00 9,0 7,4 12 6 16 9 SSW 1009,2 - 0,0
19.01.2019 22:00:00 9,0 7,6 15 8 22 12 SSW 1009,1 12 0,0
19.01.2019 21:00:00 8,9 7,3 6 3 11 6 S 1008,9 - 0,0
19.01.2019 20:00:00 9,0 7,4 9 5 12 7 S 1008,8 - 0,0
19.01.2019 19:00:00 9,3 7,2 7 4 14 7 SSE 1008,6 - 0,0
19.01.2019 18:00:00 9,6 7,2 10 5 14 7 SSW 1008,4 - 0,0
19.01.2019 17:00:00 10,3 7,7 11 6 15 8 SSW 1008,5 - 0,0
19.01.2019 16:00:00 10,6 7,1 10 6 16 9 SSW 1008,6 - 0,0
19.01.2019 15:00:00 11,1 7,8 11 6 15 8 SSW 1009,0 - 0,0
19.01.2019 14:00:00 10,4 7,3 12 7 20 11 WSW 1009,6 - 0,0
19.01.2019 13:00:00 10,3 7,2 13 7 18 10 SSW 1010,6 14 0,0
19.01.2019 12:00:00 11,0 7,9 11 6 17 9 S 1011,3 - 0,0
19.01.2019 11:00:00 9,7 7,3 10 5 17 9 SSW 1011,3 - 0,0
19.01.2019 10:00:00 7,8 6,6 14 8 17 9 SSE 1011,2 12 0,0
19.01.2019 09:00:00 7,1 5,6 9 5 14 8 S 1011,0 - 0,0
19.01.2019 08:00:00 7,4 5,7 8 4 12 6 SSE 1011,0 - 0,0
19.01.2019 07:00:00 8,1 5,9 4 2 23 12 S 1010,9 12 0,4
19.01.2019 06:00:00 8,7 5,4 28 15 55 30 W 1011,2 - 1,4
19.01.2019 05:00:00 9,0 6,4 8 5 34 18 SW 1011,3 - 0,4
19.01.2019 04:00:00 9,3 7,7 16 9 23 12 SW 1011,6 12 0,0
19.01.2019 03:00:00 9,5 8,3 16 9 39 21 WSW 1011,8 - 1,0
19.01.2019 02:00:00 9,5 8,4 29 16 47 25 SW 1012,0 - 1,2
19.01.2019 01:00:00 9,2 8,1 24 13 49 26 S 1012,4 5 0,6
19.01.2019 00:00:00 7,7 6,6 16 9 29 16 SE 1013,0 - 1,4
18.01.2019 23:00:00 7,1 5,9 16 9 29 16 SE 1013,4 - 0,0
18.01.2019 22:00:00 7,2 5,8 16 9 29 16 SE 1013,7 12 0,0
18.01.2019 21:00:00 6,8 5,4 15 8 29 15 SE 1013,9 - 0,0
18.01.2019 20:00:00 6,8 5,3 15 8 25 13 SE 1014,6 - 0,0
18.01.2019 19:00:00 6,7 4,9 15 8 23 12 SE 1015,0 12 0,0
18.01.2019 18:00:00 7,6 4,7 11 6 16 9 SE 1015,5 - 0,0
18.01.2019 17:00:00 8,5 5,4 10 6 16 9 SE 1015,7 - 0,0
18.01.2019 16:00:00 8,7 5,6 9 5 17 9 E 1016,1 12 0,0
18.01.2019 15:00:00 8,9 6,0 6 3 17 9 ESE 1016,6 - 0,0
18.01.2019 14:00:00 9,4 5,9 7 4 12 7 S 1017,1 - 0,0
18.01.2019 13:00:00 8,0 4,6 7 4 16 9 E 1017,8 12 0,0
18.01.2019 12:00:00 6,9 4,6 10 5 16 8 ESE 1018,6 - 0,0
18.01.2019 11:00:00 5,3 3,5 10 6 20 11 ESE 1019,0 - 0,0
18.01.2019 10:00:00 4,9 3,4 12 6 23 12 ESE 1019,1 12 0,0
18.01.2019 09:00:00 4,4 2,7 13 7 19 10 ESE 1018,8 - 0,0
18.01.2019 08:00:00 4,4 2,6 10 5 20 11 E 1018,9 - 0,0
18.01.2019 07:00:00 4,8 2,7 10 5 20 11 E 1019,2 - 0,0
18.01.2019 06:00:00 4,9 2,6 8 4 17 9 E 1019,4 - 0,0
18.01.2019 05:00:00 5,1 2,4 8 4 15 8 E 1019,9 - 0,0
18.01.2019 04:00:00 5,7 2,9 9 5 21 11 E 1020,2 - 0,0
18.01.2019 03:00:00 6,1 2,7 12 6 24 13 E 1020,3 - 0,0
18.01.2019 02:00:00 6,7 3,3 13 7 23 12 ENE 1020,6 - 0,0
18.01.2019 01:00:00 6,9 3,9 10 5 25 14 ENE 1020,8 - 0,0
18.01.2019 00:00:00 7,3 3,9 19 10 27 14 NNE 1020,6 - 0,0
17.01.2019 23:00:00 8,0 4,6 14 7 25 14 N 1020,4 - 0,0
17.01.2019 22:00:00 8,7 5,8 16 8 22 12 NNW 1020,3 - 0,0
17.01.2019 21:00:00 8,9 5,8 15 8 28 15 NW 1019,7 - 0,0
17.01.2019 20:00:00 9,1 5,5 19 11 27 15 NW 1019,6 - 0,0
17.01.2019 19:00:00 9,4 5,8 15 8 24 13 WNW 1019,2 - 0,0
17.01.2019 18:00:00 9,3 5,7 14 8 22 12 W 1018,9 - 0,0
17.01.2019 17:00:00 9,8 5,4 15 8 27 15 W 1018,6 - 0,0
17.01.2019 16:00:00 10,1 5,1 20 11 29 15 WNW 1018,3 17 0,0
17.01.2019 15:00:00 10,3 5,3 16 8 27 14 WNW 1018,0 - 0,0
17.01.2019 14:00:00 10,2 5,0 16 9 32 18 WNW 1018,3 - 0,0
17.01.2019 13:00:00 9,9 3,8 22 12 32 18 WNW 1018,6 - 0,0
17.01.2019 12:00:00 9,8 5,2 16 9 30 16 NW 1018,6 - 0,0
17.01.2019 11:00:00 9,7 5,3 22 12 34 19 WNW 1018,0 - 0,0
17.01.2019 10:00:00 9,1 4,9 22 12 41 22 WNW 1017,2 15 0,0
17.01.2019 09:00:00 9,0 5,4 27 15 38 21 WNW 1016,4 - 0,0
17.01.2019 08:00:00 8,5 5,2 26 14 63 34 WNW 1015,8 - 0,6

tt = Température de l'air
td = dewpoint
ff = Vitesse du vent
fx = gusts
dd = Direction du vent
ppp = reduced air pressure
vv = visibility
rr = Quantités de précipitations

stations d'obs. à proximité